User: anonymous   Login
Location: Barton Flats Campground
(34.1722°N, 116.8753°W)
Time: 17:53:25
(UTC+00:00)
Language:

Meteor 1-31 Rocket - Orbit

View from above orbital plane
View from above orbital plane
View from above satellite
View from above satellite

Ground track
Ground track

The orbit data is extracted from the following two-line orbital elements,

1 12586U 81065B   20298.51495528  .00000592  00000-0  39480-4 0  9996
2 12586  97.6349 280.7557 0017642 319.6483  40.3436 15.10814663141461
Epoch (UTC): 24 October 2020 12:21:32
Eccentricity: 0.0017642
inclination: 97.6349°
perigee height: 521 km
apogee height: 546 km
right ascension of ascending node: 280.7557°
argument of perigee: 319.6483°
revolutions per day: 15.10814663
mean anomaly at epoch: 40.3436°
orbit number at epoch: 14146

The dashed part of the orbit path shows where the satellite is in the earth's shadow,  

DLR